星链-5770 (STARLINK-5770 )

导读 | 星芒AI

STARLINK-5770 是 SpaceX Starlink 项目中的一颗低轨通信卫星,属于第57批部署的星链卫星之一。该卫星旨在为全球用户提供高速、低延迟的互联网服务,特别是在网络基础设施薄弱的地区。它运行在约550公里高的近地轨道,采用先进推进系统和激光通信技术,以提高连接效率和系统稳定性。作为星链星座的一部分,STARLINK-5770 有助于构建覆盖全球的宽带网络,支持远程教育、医疗、企业和个人用户的互联网接入需求。

基本信息
目录编号:
56026
目录名称:
STARLINK-5770
国际标识:
2023-042AS
轨道中心:
EARTH
卫星名称:
星链-5770
卫星全名:
星链-5770 (STARLINK-5770 )
卫星状态:
在轨 (已飞行1003 天)
发射日期:
2023-03-24 UTC
国别 :
美国 (US)
星等 :
--
轨道信息
数据来源 国际轨道数据 AOE轨道数据
星历时间 2025-12-20T17:45:40+0800
1天前
查看轨道信息
2025-12-17T11:00:00+0800
4天前
查看轨道信息
半长轴 6937.223km 6937.186km
偏心率 0.000153 0.0001348
轨道倾角 43.004° 43.002°
近地点辐角 270.680° 278.907°
升交点赤经 113.942° 131.775°
平近点角 89.386° 309.575°
近地点 558.024km 558.115km
远地点 560.148km 559.987km
周期 95.838分钟 95.837分钟
每日圈数 15.025342 15.02546
详细信息
固有亮度:
5
最大亮度:
2.5
卫星平台:
Starlink v1.5
覆盖范围:
全球
运营商:
太空探索技术公司
运营商所在国:
美国
制造商(研发单位):
太空探索技术公司
制造商所在国:
美国
使用方式:
暂无
卫星简介
星链(Starlink)计划是由太空探索技术公司(SpaceX)提出的一个巨型低轨卫星互联网星座项目,计划在2019年至2024年间在太空搭建由约1.2万颗卫星组成的“星链”网络,其中1584颗将部署在地球上空550千米处的近地轨道,并从2020年开始工作。该卫星仍在工作。
2D轨道图
3D轨道图
轨道高度分析图
轨道倾角分析图
轨道综合分析图
查看轨道综合分析图